Time,TemperatureF,DewpointF,PressureIn,WindDirection,WindDirectionDegrees,WindSpeedMPH,WindSpeedGustMPH,Humidity,HourlyPrecipIn,Conditions,Clouds,dailyrainin,SoftwareType,DateUTC
2013-05-18 00:01:00,60.6,49.6,30.24,South,183,5.4,5.4,67,0.00,,---,0.00,VWS V14.01,2013-05-18 04:01:00,
2013-05-18 00:02:00,60.6,49.6,30.24,SSE,161,4.0,6.3,67,0.00,,---,0.00,VWS V14.01,2013-05-18 04:02:00,
2013-05-18 00:04:00,60.6,49.6,30.24,ESE,122,5.4,5.8,67,0.00,,---,0.00,VWS V14.01,2013-05-18 04:04:00,
2013-05-18 00:09:00,60.6,49.2,30.24,SSW,203,5.4,7.6,66,0.00,,---,0.00,VWS V14.01,2013-05-18 04:09:00,
2013-05-18 00:12:00,60.6,49.2,30.24,South,187,6.3,6.3,66,0.00,,---,0.00,VWS V14.01,2013-05-18 04:12:00,
2013-05-18 00:17:00,60.6,49.2,30.24,South,169,5.8,5.8,66,0.00,,---,0.00,VWS V14.01,2013-05-18 04:17:00,
2013-05-18 00:22:00,60.6,49.2,30.24,South,186,5.8,6.3,66,0.00,,---,0.00,VWS V14.01,2013-05-18 04:22:00,
2013-05-18 00:27:00,60.6,48.8,30.24,South,181,5.4,6.3,65,0.00,,---,0.00,VWS V14.01,2013-05-18 04:27:00,
2013-05-18 00:32:00,60.6,48.8,30.24,South,186,5.8,7.6,65,0.00,,---,0.00,VWS V14.01,2013-05-18 04:32:00,
2013-05-18 00:37:00,60.6,49.2,30.24,SE,144,3.1,7.2,66,0.00,,---,0.00,VWS V14.01,2013-05-18 04:37:00,
2013-05-18 00:42:00,60.6,49.2,30.24,South,183,4.5,5.8,66,0.00,,---,0.00,VWS V14.01,2013-05-18 04:42:00,
2013-05-18 00:47:00,60.6,49.6,30.24,SSE,151,8.3,8.3,67,0.00,,---,0.00,VWS V14.01,2013-05-18 04:47:00,
2013-05-18 00:52:00,60.6,49.6,30.24,South,176,4.0,7.6,67,0.00,,---,0.00,VWS V14.01,2013-05-18 04:52:00,
2013-05-18 00:57:00,60.6,49.6,30.24,SSE,159,4.9,4.9,67,0.00,,---,0.00,VWS V14.01,2013-05-18 04:57:00,
2013-05-18 01:02:00,60.8,49.8,30.24,SSE,167,5.8,5.8,67,0.00,,---,0.00,VWS V14.01,2013-05-18 05:02:00,
2013-05-18 01:07:00,60.8,49.8,30.24,SSE,157,2.7,6.3,67,0.00,,---,0.00,VWS V14.01,2013-05-18 05:07:00,
2013-05-18 01:13:00,60.8,49.8,30.24,SSE,161,3.6,6.3,67,0.00,,---,0.00,VWS V14.01,2013-05-18 05:13:00,
2013-05-18 01:18:00,60.8,49.8,30.24,SSE,152,4.0,5.4,67,0.00,,---,0.00,VWS V14.01,2013-05-18 05:18:00,
2013-05-18 01:23:00,60.8,49.8,30.24,South,181,3.6,4.9,67,0.00,,---,0.00,VWS V14.01,2013-05-18 05:23:00,
2013-05-18 01:28:00,60.8,49.8,30.24,SSW,193,5.8,6.3,67,0.00,,---,0.00,VWS V14.01,2013-05-18 05:28:00,
2013-05-18 01:33:00,60.8,49.8,30.24,SSW,197,5.4,5.8,67,0.00,,---,0.00,VWS V14.01,2013-05-18 05:33:00,
2013-05-18 01:38:00,60.8,49.8,30.24,South,191,5.8,6.3,67,0.00,,---,0.00,VWS V14.01,2013-05-18 05:38:00,
2013-05-18 01:43:00,60.6,49.6,30.24,SSW,195,7.6,7.6,67,0.00,,---,0.00,VWS V14.01,2013-05-18 05:43:00,
2013-05-18 01:48:00,60.6,49.6,30.24,South,180,5.4,6.3,67,0.00,,---,0.00,VWS V14.01,2013-05-18 05:48:00,
2013-05-18 01:53:00,60.6,49.6,30.24,South,186,5.4,5.8,67,0.00,,---,0.00,VWS V14.01,2013-05-18 05:53:00,
2013-05-18 01:58:00,60.6,50.0,30.21,South,169,3.6,8.1,68,0.00,,---,0.00,VWS V14.01,2013-05-18 05:58:00,
2013-05-18 02:03:00,60.6,50.0,30.21,SSE,149,6.3,6.3,68,0.00,,---,0.00,VWS V14.01,2013-05-18 06:03:00,
2013-05-18 02:08:00,60.6,50.0,30.21,South,187,3.6,3.6,68,0.00,,---,0.00,VWS V14.01,2013-05-18 06:08:00,
2013-05-18 02:13:00,60.6,50.0,30.24,South,187,4.0,4.9,68,0.00,,---,0.00,VWS V14.01,2013-05-18 06:13:00,
2013-05-18 02:18:00,60.6,50.4,30.24,South,174,3.6,4.9,69,0.00,,---,0.00,VWS V14.01,2013-05-18 06:18:00,
2013-05-18 02:23:00,60.6,50.4,30.24,South,171,4.0,5.4,69,0.00,,---,0.00,VWS V14.01,2013-05-18 06:23:00,
2013-05-18 02:28:00,60.6,50.4,30.24,South,182,5.4,5.4,69,0.00,,---,0.00,VWS V14.01,2013-05-18 06:28:00,
2013-05-18 02:33:00,60.6,50.4,30.24,SSE,168,4.9,5.8,69,0.00,,---,0.00,VWS V14.01,2013-05-18 06:33:00,
2013-05-18 02:38:00,60.6,50.4,30.24,SSW,192,3.6,4.5,69,0.00,,---,0.00,VWS V14.01,2013-05-18 06:38:00,
2013-05-18 02:43:00,60.6,50.4,30.24,SSW,192,5.4,5.8,69,0.00,,---,0.00,VWS V14.01,2013-05-18 06:43:00,
2013-05-18 02:48:00,60.6,50.4,30.24,SSW,193,3.1,4.0,69,0.00,,---,0.00,VWS V14.01,2013-05-18 06:48:00,
2013-05-18 02:53:00,60.6,50.4,30.24,South,187,4.0,4.0,69,0.00,,---,0.00,VWS V14.01,2013-05-18 06:53:00,
2013-05-18 02:58:00,60.6,50.4,30.24,South,191,4.0,4.5,69,0.00,,---,0.00,VWS V14.01,2013-05-18 06:58:00,
2013-05-18 03:03:00,60.6,50.4,30.24,SSW,194,4.0,5.8,69,0.00,,---,0.00,VWS V14.01,2013-05-18 07:03:00,
2013-05-18 03:08:00,60.4,50.6,30.24,South,179,6.3,6.3,70,0.00,,---,0.00,VWS V14.01,2013-05-18 07:08:00,
2013-05-18 03:13:00,60.4,50.6,30.24,SSW,201,4.9,5.8,70,0.00,,---,0.00,VWS V14.01,2013-05-18 07:13:00,
2013-05-18 03:18:00,60.4,51.0,30.24,South,172,4.0,4.0,71,0.00,,---,0.00,VWS V14.01,2013-05-18 07:18:00,
2013-05-18 03:23:00,60.4,51.4,30.24,South,190,5.4,5.4,72,0.00,,---,0.00,VWS V14.01,2013-05-18 07:23:00,
2013-05-18 03:28:00,60.4,51.4,30.24,South,189,2.7,2.7,72,0.00,,---,0.00,VWS V14.01,2013-05-18 07:28:00,
2013-05-18 03:33:00,60.3,51.6,30.24,SSW,202,4.9,5.4,73,0.00,,---,0.00,VWS V14.01,2013-05-18 07:33:00,
2013-05-18 03:38:00,60.4,51.8,30.24,SW,219,4.0,4.0,73,0.00,,---,0.00,VWS V14.01,2013-05-18 07:38:00,
2013-05-18 03:44:00,60.3,52.0,30.24,SW,221,6.3,6.7,74,0.00,,---,0.00,VWS V14.01,2013-05-18 07:44:00,
2013-05-18 03:50:00,60.3,52.3,30.24,SSW,208,4.0,5.4,75,0.00,,---,0.00,VWS V14.01,2013-05-18 07:50:00,
2013-05-18 03:55:00,60.4,52.8,30.24,SSW,210,3.1,4.9,76,0.00,,---,0.00,VWS V14.01,2013-05-18 07:55:00,
2013-05-18 04:01:00,60.4,52.8,30.24,SSW,202,3.6,4.0,76,0.00,,---,0.00,VWS V14.01,2013-05-18 08:01:00,
2013-05-18 04:06:00,60.3,52.7,30.24,South,190,4.0,4.0,76,0.00,,---,0.00,VWS V14.01,2013-05-18 08:06:00,
2013-05-18 04:12:00,60.4,53.2,30.24,SSW,211,2.7,3.6,77,0.00,,---,0.00,VWS V14.01,2013-05-18 08:12:00,
2013-05-18 04:18:00,60.4,53.2,30.24,SW,225,0.0,2.7,77,0.00,,---,0.00,VWS V14.01,2013-05-18 08:18:00,
2013-05-18 04:23:00,60.4,53.2,30.24,SW,225,2.7,4.0,77,0.00,,---,0.00,VWS V14.01,2013-05-18 08:23:00,
2013-05-18 04:28:00,60.6,53.4,30.24,SW,230,3.1,3.1,77,0.00,,---,0.00,VWS V14.01,2013-05-18 08:28:00,
2013-05-18 04:33:00,60.4,53.6,30.24,SSW,209,0.0,3.6,78,0.00,,---,0.00,VWS V14.01,2013-05-18 08:33:00,
2013-05-18 04:38:00,60.6,53.7,30.24,WSW,247,3.6,3.6,78,0.00,,---,0.00,VWS V14.01,2013-05-18 08:38:00,
2013-05-18 04:43:00,60.6,53.7,30.27,WSW,247,0.0,0.0,78,0.00,,---,0.00,VWS V14.01,2013-05-18 08:43:00,
2013-05-18 04:48:00,60.6,53.7,30.27,WSW,247,0.0,0.0,78,0.00,,---,0.00,VWS V14.01,2013-05-18 08:48:00,
2013-05-18 04:53:00,60.8,53.5,30.27,WSW,247,0.0,0.0,77,0.00,,---,0.00,VWS V14.01,2013-05-18 08:53:00,
2013-05-18 04:58:00,60.8,53.5,30.27,WSW,247,0.0,0.0,77,0.00,,---,0.00,VWS V14.01,2013-05-18 08:58:00,
2013-05-18 05:03:00,61.0,53.7,30.27,WSW,247,0.0,0.0,77,0.00,,---,0.00,VWS V14.01,2013-05-18 09:03:00,
2013-05-18 05:08:00,61.0,53.7,30.27,WSW,247,0.0,0.0,77,0.00,,---,0.00,VWS V14.01,2013-05-18 09:08:00,
2013-05-18 05:13:00,61.0,53.4,30.27,WSW,247,0.0,0.0,76,0.00,,---,0.00,VWS V14.01,2013-05-18 09:13:00,
2013-05-18 05:18:00,60.8,53.2,30.27,WSW,247,0.0,0.0,76,0.00,,---,0.00,VWS V14.01,2013-05-18 09:18:00,
2013-05-18 05:23:00,60.8,53.2,30.27,WSW,247,0.0,0.0,76,0.00,,---,0.00,VWS V14.01,2013-05-18 09:23:00,
2013-05-18 05:28:00,60.8,53.5,30.27,WSW,247,0.0,0.0,77,0.00,,---,0.00,VWS V14.01,2013-05-18 09:28:00,
2013-05-18 05:33:00,60.8,53.9,30.27,South,178,0.0,0.0,78,0.00,,---,0.00,VWS V14.01,2013-05-18 09:33:00,
2013-05-18 05:38:00,60.6,53.7,30.27,South,178,0.0,0.0,78,0.00,,---,0.00,VWS V14.01,2013-05-18 09:38:00,
2013-05-18 05:43:00,60.6,54.1,30.27,South,178,0.0,0.0,79,0.00,,---,0.00,VWS V14.01,2013-05-18 09:43:00,
2013-05-18 05:48:00,60.4,53.9,30.27,South,179,0.0,0.0,79,0.00,,---,0.00,VWS V14.01,2013-05-18 09:48:00,
2013-05-18 05:53:00,60.4,53.9,30.27,South,179,0.0,0.0,79,0.00,,---,0.00,VWS V14.01,2013-05-18 09:53:00,
2013-05-18 05:58:00,60.6,54.1,30.27,South,179,0.0,0.0,79,0.00,,---,0.00,VWS V14.01,2013-05-18 09:58:00,
2013-05-18 06:03:00,60.6,54.1,30.27,South,179,0.0,0.0,79,0.00,,---,0.00,VWS V14.01,2013-05-18 10:03:00,
2013-05-18 06:08:00,60.6,54.1,30.27,South,179,0.0,0.0,79,0.00,,---,0.00,VWS V14.01,2013-05-18 10:08:00,
2013-05-18 06:13:00,60.8,53.9,30.27,South,179,0.0,0.0,78,0.00,,---,0.00,VWS V14.01,2013-05-18 10:13:00,
2013-05-18 06:18:00,61.0,54.1,30.27,South,179,0.0,0.0,78,0.00,,---,0.00,VWS V14.01,2013-05-18 10:18:00,
2013-05-18 06:23:00,61.2,54.3,30.27,South,179,0.0,0.0,78,0.00,,---,0.00,VWS V14.01,2013-05-18 10:23:00,
2013-05-18 06:28:00,61.3,54.1,30.30,ENE,67,0.0,0.0,77,0.00,,---,0.00,VWS V14.01,2013-05-18 10:28:00,
2013-05-18 06:33:00,61.3,54.1,30.30,ENE,73,0.0,0.0,77,0.00,,---,0.00,VWS V14.01,2013-05-18 10:33:00,
2013-05-18 06:38:00,61.5,54.2,30.30,ENE,73,0.0,0.0,77,0.00,,---,0.00,VWS V14.01,2013-05-18 10:38:00,
2013-05-18 06:43:00,61.5,54.2,30.30,East,92,0.0,0.0,77,0.00,,---,0.00,VWS V14.01,2013-05-18 10:43:00,
2013-05-18 06:48:00,61.7,54.1,30.30,ESE,110,0.0,0.0,76,0.00,,---,0.00,VWS V14.01,2013-05-18 10:48:00,
2013-05-18 06:53:00,61.7,54.1,30.30,East,90,3.1,3.1,76,0.00,,---,0.00,VWS V14.01,2013-05-18 10:53:00,
2013-05-18 06:58:00,61.9,54.2,30.30,ESE,109,4.9,4.9,76,0.00,,---,0.00,VWS V14.01,2013-05-18 10:58:00,
2013-05-18 07:03:00,61.9,54.2,30.30,ESE,114,4.9,6.3,76,0.00,,---,0.00,VWS V14.01,2013-05-18 11:03:00,
2013-05-18 07:08:00,61.9,54.2,30.30,SSE,151,0.0,5.8,76,0.00,,---,0.00,VWS V14.01,2013-05-18 11:08:00,
2013-05-18 07:13:00,61.9,53.9,30.30,ESE,118,4.0,4.9,75,0.00,,---,0.00,VWS V14.01,2013-05-18 11:13:00,
2013-05-18 07:18:00,62.1,54.0,30.30,ESE,119,4.0,4.0,75,0.00,,---,0.00,VWS V14.01,2013-05-18 11:18:00,
2013-05-18 07:23:00,62.1,54.0,30.30,SSE,156,3.6,3.6,75,0.00,,---,0.00,VWS V14.01,2013-05-18 11:23:00,
2013-05-18 07:28:00,62.2,53.9,30.30,SE,141,5.4,5.4,74,0.00,,---,0.00,VWS V14.01,2013-05-18 11:28:00,
2013-05-18 07:33:00,62.8,54.0,30.30,SSE,156,4.0,4.9,73,0.00,,---,0.00,VWS V14.01,2013-05-18 11:33:00,
2013-05-18 07:38:00,63.5,54.3,30.30,SSE,147,3.6,5.8,72,0.00,,---,0.00,VWS V14.01,2013-05-18 11:38:00,
2013-05-18 07:43:00,64.0,54.5,30.30,SSE,152,6.3,6.3,71,0.00,,---,0.00,VWS V14.01,2013-05-18 11:43:00,
2013-05-18 07:48:00,64.2,54.2,30.30,SE,138,5.8,8.1,70,0.00,,---,0.00,VWS V14.01,2013-05-18 11:48:00,
2013-05-18 07:53:00,63.9,53.9,30.30,SE,146,5.4,5.8,70,0.00,,---,0.00,VWS V14.01,2013-05-18 11:53:00,
2013-05-18 07:58:00,63.9,53.9,30.30,SE,144,5.8,6.3,70,0.00,,---,0.00,VWS V14.01,2013-05-18 11:58:00,
2013-05-18 08:03:00,64.8,54.4,30.30,SSE,150,4.0,5.8,69,0.00,,---,0.00,VWS V14.01,2013-05-18 12:03:00,
2013-05-18 08:08:00,64.8,54.0,30.30,SE,131,5.4,5.8,68,0.00,,---,0.00,VWS V14.01,2013-05-18 12:08:00,
2013-05-18 08:13:00,65.3,54.5,30.30,SE,124,6.3,7.6,68,0.00,,---,0.00,VWS V14.01,2013-05-18 12:13:00,
2013-05-18 08:18:00,65.7,54.8,30.30,SE,129,4.0,6.3,68,0.00,,---,0.00,VWS V14.01,2013-05-18 12:18:00,
2013-05-18 08:24:00,65.8,54.6,30.30,SE,130,4.0,5.4,67,0.00,,---,0.00,VWS V14.01,2013-05-18 12:24:00,
2013-05-18 08:29:00,65.8,54.6,30.30,SE,140,3.1,5.8,67,0.00,,---,0.00,VWS V14.01,2013-05-18 12:29:00,
2013-05-18 08:34:00,66.4,54.7,30.30,ESE,117,5.8,5.8,66,0.00,,---,0.00,VWS V14.01,2013-05-18 12:34:00,
2013-05-18 08:39:00,66.6,54.9,30.30,ESE,113,5.4,5.4,66,0.00,,---,0.00,VWS V14.01,2013-05-18 12:39:00,
2013-05-18 08:44:00,67.1,55.0,30.33,SE,140,4.0,4.0,65,0.00,,---,0.00,VWS V14.01,2013-05-18 12:44:00,
2013-05-18 08:49:00,67.5,55.3,30.33,ESE,106,6.7,6.7,65,0.00,,---,0.00,VWS V14.01,2013-05-18 12:49:00,
2013-05-18 08:54:00,67.6,55.0,30.33,ESE,123,3.6,6.3,64,0.00,,---,0.00,VWS V14.01,2013-05-18 12:54:00,
2013-05-18 08:59:00,68.0,55.0,30.33,ESE,119,4.0,5.4,63,0.00,,---,0.00,VWS V14.01,2013-05-18 12:59:00,
2013-05-18 09:04:00,68.5,55.5,30.33,ESE,110,5.4,5.4,63,0.00,,---,0.00,VWS V14.01,2013-05-18 13:04:00,
2013-05-18 09:09:00,68.7,55.2,30.33,East,101,6.3,6.7,62,0.00,,---,0.00,VWS V14.01,2013-05-18 13:09:00,
2013-05-18 09:14:00,68.0,54.5,30.33,SE,125,6.7,6.7,62,0.00,,---,0.00,VWS V14.01,2013-05-18 13:14:00,
2013-05-18 09:19:00,67.3,54.3,30.33,SE,131,3.6,5.8,63,0.00,,---,0.00,VWS V14.01,2013-05-18 13:19:00,
2013-05-18 09:24:00,67.6,55.0,30.33,SE,140,3.6,4.9,64,0.00,,---,0.00,VWS V14.01,2013-05-18 13:24:00,
2013-05-18 09:29:00,67.8,54.8,30.33,ESE,121,3.6,5.8,63,0.00,,---,0.00,VWS V14.01,2013-05-18 13:29:00,
2013-05-18 09:34:00,67.8,54.8,30.33,SE,131,6.7,6.7,63,0.00,,---,0.00,VWS V14.01,2013-05-18 13:34:00,
2013-05-18 09:39:00,68.2,54.7,30.33,ESE,109,6.3,6.3,62,0.00,,---,0.00,VWS V14.01,2013-05-18 13:39:00,
2013-05-18 09:44:00,68.9,54.9,30.33,SE,136,6.3,6.3,61,0.00,,---,0.00,VWS V14.01,2013-05-18 13:44:00,
2013-05-18 09:49:00,69.4,55.0,30.33,ESE,121,7.6,8.3,60,0.00,,---,0.00,VWS V14.01,2013-05-18 13:49:00,
2013-05-18 09:54:00,70.0,55.0,30.33,SE,132,8.3,8.3,59,0.00,,---,0.00,VWS V14.01,2013-05-18 13:54:00,
2013-05-18 09:59:00,70.7,55.2,30.33,East,96,3.6,6.3,58,0.00,,---,0.00,VWS V14.01,2013-05-18 13:59:00,
2013-05-18 10:04:00,71.1,55.1,30.33,ESE,104,3.6,3.6,57,0.00,,---,0.00,VWS V14.01,2013-05-18 14:04:00,
2013-05-18 10:09:00,71.1,54.6,30.33,ESE,105,7.2,7.2,56,0.00,,---,0.00,VWS V14.01,2013-05-18 14:09:00,
2013-05-18 10:14:00,70.9,53.9,30.33,SE,136,7.2,7.2,55,0.00,,---,0.00,VWS V14.01,2013-05-18 14:14:00,
2013-05-18 10:19:00,71.1,54.1,30.33,ESE,118,7.6,7.6,55,0.00,,---,0.00,VWS V14.01,2013-05-18 14:19:00,
2013-05-18 10:24:00,71.1,54.1,30.33,ESE,114,8.3,8.3,55,0.00,,---,0.00,VWS V14.01,2013-05-18 14:24:00,
2013-05-18 10:29:00,70.7,53.8,30.33,SE,129,7.6,7.6,55,0.00,,---,0.00,VWS V14.01,2013-05-18 14:29:00,
2013-05-18 10:34:00,70.2,53.8,30.33,SE,126,7.6,8.1,56,0.00,,---,0.00,VWS V14.01,2013-05-18 14:34:00,
2013-05-18 10:39:00,70.3,53.9,30.33,SE,126,8.1,8.1,56,0.00,,---,0.00,VWS V14.01,2013-05-18 14:39:00,
2013-05-18 10:44:00,70.7,54.2,30.33,ESE,116,3.6,6.3,56,0.00,,---,0.00,VWS V14.01,2013-05-18 14:44:00,
2013-05-18 10:49:00,70.5,54.1,30.33,SE,137,8.7,8.7,56,0.00,,---,0.00,VWS V14.01,2013-05-18 14:49:00,
2013-05-18 10:54:00,70.0,53.6,30.33,SE,136,5.4,7.2,56,0.00,,---,0.00,VWS V14.01,2013-05-18 14:54:00,
2013-05-18 10:59:00,70.2,53.8,30.33,SSE,166,7.6,8.3,56,0.00,,---,0.00,VWS V14.01,2013-05-18 14:59:00,
2013-05-18 11:04:00,69.4,53.6,30.33,SE,134,8.3,8.3,57,0.00,,---,0.00,VWS V14.01,2013-05-18 15:04:00,
2013-05-18 11:09:00,69.3,53.9,30.33,East,90,8.1,8.1,58,0.00,,---,0.00,VWS V14.01,2013-05-18 15:09:00,
2013-05-18 11:14:00,69.1,54.2,30.33,ESE,114,5.8,7.6,59,0.00,,---,0.00,VWS V14.01,2013-05-18 15:14:00,
2013-05-18 11:19:00,68.7,53.8,30.33,ESE,107,5.8,6.7,59,0.00,,---,0.00,VWS V14.01,2013-05-18 15:19:00,
2013-05-18 11:24:00,68.4,53.5,30.33,ESE,104,3.6,4.9,59,0.00,,---,0.00,VWS V14.01,2013-05-18 15:24:00,
2013-05-18 11:29:00,68.4,54.0,30.33,SE,129,4.0,5.8,60,0.00,,---,0.00,VWS V14.01,2013-05-18 15:29:00,
2013-05-18 11:34:00,68.4,54.0,30.33,East,99,5.4,5.4,60,0.00,,---,0.00,VWS V14.01,2013-05-18 15:34:00,
2013-05-18 11:39:00,68.0,53.6,30.33,SE,126,4.0,5.8,60,0.00,,---,0.00,VWS V14.01,2013-05-18 15:39:00,
2013-05-18 11:44:00,67.8,53.9,30.33,ESE,111,4.0,6.3,61,0.00,,---,0.00,VWS V14.01,2013-05-18 15:44:00,
2013-05-18 11:49:00,67.3,53.8,30.33,ESE,120,5.4,5.4,62,0.00,,---,0.00,VWS V14.01,2013-05-18 15:49:00,
2013-05-18 11:54:00,66.7,53.8,30.33,ESE,107,6.3,6.3,63,0.00,,---,0.00,VWS V14.01,2013-05-18 15:54:00,
2013-05-18 11:59:00,66.6,53.6,30.33,SE,145,5.8,5.8,63,0.00,,---,0.00,VWS V14.01,2013-05-18 15:59:00,
2013-05-18 12:04:00,66.4,53.8,30.33,ESE,111,5.8,6.3,64,0.00,,---,0.00,VWS V14.01,2013-05-18 16:04:00,
2013-05-18 12:09:00,66.2,53.7,30.33,SE,132,6.3,6.7,64,0.00,,---,0.00,VWS V14.01,2013-05-18 16:09:00,
2013-05-18 12:14:00,66.4,54.3,30.33,ESE,123,6.3,6.3,65,0.00,,---,0.00,VWS V14.01,2013-05-18 16:14:00,
2013-05-18 12:19:00,66.4,54.3,30.33,ESE,114,3.1,5.4,65,0.00,,---,0.00,VWS V14.01,2013-05-18 16:19:00,
2013-05-18 12:24:00,66.2,54.1,30.33,ESE,114,6.3,6.3,65,0.00,,---,0.00,VWS V14.01,2013-05-18 16:24:00,
2013-05-18 12:29:00,66.4,54.3,30.33,ESE,105,4.0,4.9,65,0.00,,---,0.00,VWS V14.01,2013-05-18 16:29:00,
2013-05-18 12:34:00,66.2,54.1,30.33,ESE,106,4.9,4.9,65,0.00,,---,0.00,VWS V14.01,2013-05-18 16:34:00,
2013-05-18 12:39:00,66.2,54.1,30.33,ESE,123,4.0,5.8,65,0.00,,---,0.00,VWS V14.01,2013-05-18 16:39:00,
2013-05-18 12:44:00,66.0,54.3,30.33,ESE,120,5.8,5.8,66,0.00,,---,0.00,VWS V14.01,2013-05-18 16:44:00,
2013-05-18 12:49:00,66.0,54.3,30.33,East,93,4.9,5.8,66,0.00,,---,0.00,VWS V14.01,2013-05-18 16:49:00,
2013-05-18 12:54:00,66.2,54.5,30.33,ESE,109,2.7,4.0,66,0.00,,---,0.00,VWS V14.01,2013-05-18 16:54:00,
2013-05-18 12:59:00,66.4,54.7,30.33,East,88,5.8,5.8,66,0.00,,---,0.00,VWS V14.01,2013-05-18 16:59:00,
2013-05-18 13:04:00,66.6,54.9,30.33,ESE,114,6.3,6.3,66,0.00,,---,0.00,VWS V14.01,2013-05-18 17:04:00,
2013-05-18 13:09:00,66.4,54.7,30.33,ESE,123,6.3,6.3,66,0.00,,---,0.00,VWS V14.01,2013-05-18 17:09:00,
2013-05-18 13:14:00,66.7,55.0,30.33,East,86,5.4,5.4,66,0.00,,---,0.00,VWS V14.01,2013-05-18 17:14:00,
2013-05-18 13:19:00,66.7,55.0,30.33,ESE,116,5.4,5.4,66,0.00,,---,0.00,VWS V14.01,2013-05-18 17:19:00,
2013-05-18 13:24:00,66.6,54.9,30.33,SE,140,5.8,5.8,66,0.00,,---,0.00,VWS V14.01,2013-05-18 17:24:00,
2013-05-18 13:29:00,66.6,54.9,30.30,ESE,117,7.6,7.6,66,0.00,,---,0.00,VWS V14.01,2013-05-18 17:29:00,
2013-05-18 13:34:00,66.9,54.8,30.30,SE,124,5.4,6.3,65,0.00,,---,0.00,VWS V14.01,2013-05-18 17:34:00,
2013-05-18 13:39:00,67.3,55.1,30.30,ESE,114,5.4,5.8,65,0.00,,---,0.00,VWS V14.01,2013-05-18 17:39:00,
2013-05-18 13:44:00,68.0,55.4,30.30,SE,132,7.6,7.6,64,0.00,,---,0.00,VWS V14.01,2013-05-18 17:44:00,
2013-05-18 13:49:00,68.2,55.1,30.30,SE,125,4.0,5.8,63,0.00,,---,0.00,VWS V14.01,2013-05-18 17:49:00,
2013-05-18 13:54:00,68.5,55.5,30.30,ESE,118,5.8,5.8,63,0.00,,---,0.00,VWS V14.01,2013-05-18 17:54:00,
2013-05-18 13:59:00,68.5,55.5,30.30,East,92,5.4,5.4,63,0.00,,---,0.00,VWS V14.01,2013-05-18 17:59:00,
2013-05-18 14:04:00,68.7,55.6,30.30,ESE,110,7.6,7.6,63,0.00,,---,0.00,VWS V14.01,2013-05-18 18:04:00,
2013-05-18 14:09:00,68.5,55.5,30.30,ESE,115,4.9,7.6,63,0.00,,---,0.00,VWS V14.01,2013-05-18 18:09:00,
2013-05-18 14:14:00,68.2,55.1,30.30,SE,126,4.0,5.8,63,0.00,,---,0.00,VWS V14.01,2013-05-18 18:14:00,
2013-05-18 14:19:00,68.2,55.1,30.30,SE,140,6.3,8.3,63,0.00,,---,0.00,VWS V14.01,2013-05-18 18:19:00,
2013-05-18 14:24:00,68.4,54.8,30.30,ESE,118,5.4,7.6,62,0.00,,---,0.00,VWS V14.01,2013-05-18 18:24:00,
2013-05-18 14:29:00,69.4,55.9,30.30,SE,128,7.6,7.6,62,0.00,,---,0.00,VWS V14.01,2013-05-18 18:29:00,
2013-05-18 14:34:00,69.3,55.2,30.30,SE,138,4.0,8.7,61,0.00,,---,0.00,VWS V14.01,2013-05-18 18:34:00,
2013-05-18 14:39:00,70.0,55.5,30.30,ESE,113,5.8,7.6,60,0.00,,---,0.00,VWS V14.01,2013-05-18 18:39:00,
2013-05-18 14:44:00,70.2,55.2,30.30,SE,129,5.8,7.2,59,0.00,,---,0.00,VWS V14.01,2013-05-18 18:44:00,
2013-05-18 14:49:00,69.4,54.5,30.30,SSE,168,6.3,6.3,59,0.00,,---,0.00,VWS V14.01,2013-05-18 18:49:00,
2013-05-18 14:54:00,69.1,54.2,30.30,ESE,123,5.8,7.6,59,0.00,,---,0.00,VWS V14.01,2013-05-18 18:54:00,
2013-05-18 14:59:00,68.5,54.1,30.30,SE,128,8.1,8.1,60,0.00,,---,0.00,VWS V14.01,2013-05-18 18:59:00,
2013-05-18 15:04:00,68.2,54.2,30.30,ESE,117,6.3,6.3,61,0.00,,---,0.00,VWS V14.01,2013-05-18 19:04:00,
2013-05-18 15:09:00,67.8,54.3,30.30,ESE,122,6.3,7.6,62,0.00,,---,0.00,VWS V14.01,2013-05-18 19:09:00,
2013-05-18 15:14:00,67.6,54.6,30.30,SE,137,5.8,5.8,63,0.00,,---,0.00,VWS V14.01,2013-05-18 19:14:00,
2013-05-18 15:19:00,67.6,55.0,30.30,East,88,3.6,4.0,64,0.00,,---,0.00,VWS V14.01,2013-05-18 19:19:00,
2013-05-18 15:24:00,67.8,55.2,30.30,East,96,3.6,5.8,64,0.00,,---,0.00,VWS V14.01,2013-05-18 19:24:00,
2013-05-18 15:29:00,67.5,54.9,30.30,ENE,74,4.0,5.4,64,0.00,,---,0.00,VWS V14.01,2013-05-18 19:29:00,
2013-05-18 15:34:00,67.5,54.9,30.30,East,99,5.4,6.3,64,0.00,,---,0.00,VWS V14.01,2013-05-18 19:34:00,
2013-05-18 15:39:00,67.3,54.7,30.30,East,98,5.8,5.8,64,0.00,,---,0.00,VWS V14.01,2013-05-18 19:39:00,
2013-05-18 15:44:00,66.9,54.8,30.30,SE,133,4.0,6.3,65,0.00,,---,0.00,VWS V14.01,2013-05-18 19:44:00,
2013-05-18 15:49:00,66.9,54.8,30.30,East,94,4.0,6.3,65,0.00,,---,0.00,VWS V14.01,2013-05-18 19:49:00,
2013-05-18 15:54:00,66.7,54.6,30.30,ESE,104,6.3,6.7,65,0.00,,---,0.00,VWS V14.01,2013-05-18 19:54:00,
2013-05-18 15:59:00,66.6,54.4,30.30,East,84,5.4,5.8,65,0.00,,---,0.00,VWS V14.01,2013-05-18 19:59:00,
2013-05-18 16:04:00,66.6,54.9,30.30,SE,124,6.3,6.3,66,0.00,,---,0.00,VWS V14.01,2013-05-18 20:04:00,
2013-05-18 16:09:00,66.4,54.7,30.30,SE,131,5.4,5.4,66,0.00,,---,0.00,VWS V14.01,2013-05-18 20:09:00,
2013-05-18 16:14:00,66.4,54.7,30.30,SE,130,4.0,6.3,66,0.00,,---,0.00,VWS V14.01,2013-05-18 20:14:00,
2013-05-18 16:20:00,66.6,55.3,30.30,East,91,8.1,8.1,67,0.00,,---,0.00,VWS V14.01,2013-05-18 20:20:00,
2013-05-18 16:25:00,66.4,54.7,30.30,East,83,7.6,8.1,66,0.00,,---,0.00,VWS V14.01,2013-05-18 20:25:00,
2013-05-18 16:30:00,66.4,55.1,30.30,East,91,6.3,8.1,67,0.00,,---,0.00,VWS V14.01,2013-05-18 20:30:00,
2013-05-18 16:35:00,66.2,54.9,30.30,ESE,109,7.6,7.6,67,0.00,,---,0.00,VWS V14.01,2013-05-18 20:35:00,
2013-05-18 16:40:00,66.2,54.9,30.30,ENE,78,5.4,8.1,67,0.00,,---,0.00,VWS V14.01,2013-05-18 20:40:00,
2013-05-18 16:45:00,66.0,54.8,30.30,ESE,106,5.4,7.2,67,0.00,,---,0.00,VWS V14.01,2013-05-18 20:45:00,
2013-05-18 16:50:00,65.8,55.0,30.30,ESE,117,8.3,8.3,68,0.00,,---,0.00,VWS V14.01,2013-05-18 20:50:00,
2013-05-18 16:55:00,65.7,54.8,30.30,ESE,113,4.9,6.3,68,0.00,,---,0.00,VWS V14.01,2013-05-18 20:55:00,
2013-05-18 17:00:00,65.8,55.4,30.30,SE,126,5.4,6.3,69,0.00,,---,1.06,VWS V14.01,2013-05-18 21:00:00,
2013-05-18 17:05:00,65.8,55.4,30.30,ESE,105,3.6,5.8,69,0.00,,---,0.00,VWS V14.01,2013-05-18 21:05:00,
2013-05-18 17:10:00,65.8,55.4,30.30,East,81,5.4,5.4,69,0.00,,---,0.00,VWS V14.01,2013-05-18 21:10:00,
2013-05-18 17:15:00,65.7,55.2,30.30,ESE,109,2.7,5.8,69,0.00,,---,0.00,VWS V14.01,2013-05-18 21:15:00,
2013-05-18 17:20:00,65.7,55.2,30.30,East,101,4.0,5.8,69,0.00,,---,0.00,VWS V14.01,2013-05-18 21:20:00,
2013-05-18 17:25:00,65.7,55.2,30.30,ESE,115,4.0,4.0,69,0.00,,---,0.00,VWS V14.01,2013-05-18 21:25:00,
2013-05-18 17:30:00,65.3,54.9,30.30,ESE,123,5.4,7.6,69,0.00,,---,0.00,VWS V14.01,2013-05-18 21:30:00,
2013-05-18 17:35:00,65.1,55.1,30.30,ESE,114,8.3,8.3,70,0.00,,---,0.00,VWS V14.01,2013-05-18 21:35:00,
2013-05-18 17:40:00,64.9,54.9,30.30,ESE,115,5.8,5.8,70,0.00,,---,0.00,VWS V14.01,2013-05-18 21:40:00,
2013-05-18 17:45:00,64.8,54.8,30.30,ESE,119,6.3,6.3,70,0.00,,---,0.00,VWS V14.01,2013-05-18 21:45:00,
2013-05-18 17:50:00,64.6,55.0,30.30,ESE,116,8.3,8.3,71,0.00,,---,0.00,VWS V14.01,2013-05-18 21:50:00,
2013-05-18 17:55:00,64.6,55.0,30.30,East,92,5.4,5.4,71,0.00,,---,0.00,VWS V14.01,2013-05-18 21:55:00,
2013-05-18 18:00:00,64.4,54.8,30.30,East,95,5.8,5.8,71,0.00,,---,0.00,VWS V14.01,2013-05-18 22:00:00,
2013-05-18 18:05:00,64.4,54.8,30.30,East,85,4.0,6.3,71,0.00,,---,0.00,VWS V14.01,2013-05-18 22:05:00,
2013-05-18 18:10:00,64.2,55.0,30.30,East,84,5.8,5.8,72,0.00,,---,0.00,VWS V14.01,2013-05-18 22:10:00,
2013-05-18 18:15:00,64.2,55.0,30.30,ESE,108,4.9,4.9,72,0.00,,---,0.00,VWS V14.01,2013-05-18 22:15:00,
2013-05-18 18:20:00,64.0,54.8,30.30,ESE,123,4.0,7.6,72,0.00,,---,0.00,VWS V14.01,2013-05-18 22:20:00,
2013-05-18 18:25:00,64.0,55.2,30.30,East,100,2.7,4.9,73,0.00,,---,0.00,VWS V14.01,2013-05-18 22:25:00,
2013-05-18 18:30:00,63.9,55.0,30.30,East,84,6.3,6.3,73,0.00,,---,0.00,VWS V14.01,2013-05-18 22:30:00,
2013-05-18 18:35:00,63.7,54.9,30.30,ESE,112,5.4,5.4,73,0.00,,---,0.00,VWS V14.01,2013-05-18 22:35:00,
2013-05-18 18:40:00,63.5,54.7,30.30,ESE,105,4.0,5.4,73,0.00,,---,0.00,VWS V14.01,2013-05-18 22:40:00,
2013-05-18 18:45:00,63.5,55.1,30.30,SE,126,4.0,5.4,74,0.00,,---,0.00,VWS V14.01,2013-05-18 22:45:00,
2013-05-18 18:50:00,63.3,54.9,30.30,ESE,118,3.6,3.6,74,0.00,,---,0.00,VWS V14.01,2013-05-18 22:50:00,
2013-05-18 18:55:00,63.3,54.9,30.30,ESE,110,2.7,3.6,74,0.00,,---,0.00,VWS V14.01,2013-05-18 22:55:00,
2013-05-18 19:00:00,63.3,55.3,30.30,ESE,108,5.8,5.8,75,0.00,,---,0.00,VWS V14.01,2013-05-18 23:00:00,
2013-05-18 19:05:00,63.1,55.5,30.30,ESE,116,5.4,5.4,76,0.00,,---,0.00,VWS V14.01,2013-05-18 23:05:00,
2013-05-18 19:10:00,63.1,55.5,30.30,East,89,5.8,7.6,76,0.00,,---,0.00,VWS V14.01,2013-05-18 23:10:00,
2013-05-18 19:15:00,63.0,55.3,30.30,ESE,109,5.8,5.8,76,0.00,,---,0.00,VWS V14.01,2013-05-18 23:15:00,
2013-05-18 19:20:00,62.8,55.1,30.30,ESE,118,5.4,8.1,76,0.00,,---,0.00,VWS V14.01,2013-05-18 23:20:00,
2013-05-18 19:25:00,62.6,55.3,30.30,ESE,120,5.4,6.3,77,0.00,,---,0.00,VWS V14.01,2013-05-18 23:25:00,
2013-05-18 19:30:00,62.4,55.5,30.30,SE,139,8.7,8.7,78,0.00,,---,0.00,VWS V14.01,2013-05-18 23:30:00,
2013-05-18 19:35:00,62.2,55.3,30.30,East,100,5.8,6.7,78,0.00,,---,0.00,VWS V14.01,2013-05-18 23:35:00,
2013-05-18 19:40:00,62.2,55.3,30.30,SE,124,8.7,8.7,78,0.00,,---,0.00,VWS V14.01,2013-05-18 23:40:00,
2013-05-18 19:45:00,62.2,55.3,30.30,ESE,115,6.7,6.7,78,0.00,,---,0.00,VWS V14.01,2013-05-18 23:45:00,
2013-05-18 19:50:00,62.2,55.3,30.30,SE,141,7.6,8.3,78,0.00,,---,0.00,VWS V14.01,2013-05-18 23:50:00,
2013-05-18 19:55:00,62.1,55.1,30.30,SE,125,5.8,8.3,78,0.00,,---,0.00,VWS V14.01,2013-05-18 23:55:00,
2013-05-18 20:00:00,62.1,55.1,30.30,SE,136,7.6,8.3,78,0.00,,---,0.00,VWS V14.01,2013-05-19 00:00:00,
2013-05-18 20:05:00,62.1,55.5,30.30,ESE,120,8.7,8.7,79,0.00,,---,0.00,VWS V14.01,2013-05-19 00:05:00,
2013-05-18 20:10:00,61.9,55.3,30.30,ESE,111,8.1,8.1,79,0.00,,---,0.00,VWS V14.01,2013-05-19 00:10:00,
2013-05-18 20:15:00,61.9,55.3,30.30,SE,139,6.3,6.3,79,0.00,,---,0.00,VWS V14.01,2013-05-19 00:15:00,
2013-05-18 20:20:00,61.9,55.3,30.30,ESE,123,6.3,7.6,79,0.00,,---,0.00,VWS V14.01,2013-05-19 00:20:00,
2013-05-18 20:25:00,61.9,55.3,30.30,SE,133,7.6,7.6,79,0.00,,---,0.00,VWS V14.01,2013-05-19 00:25:00,
2013-05-18 20:30:00,61.7,55.1,30.30,SE,130,8.1,8.1,79,0.00,,---,0.00,VWS V14.01,2013-05-19 00:30:00,
2013-05-18 20:35:00,61.7,55.5,30.30,SE,126,7.6,7.6,80,0.00,,---,0.00,VWS V14.01,2013-05-19 00:35:00,
2013-05-18 20:40:00,61.5,55.3,30.30,SE,128,8.1,8.1,80,0.00,,---,0.00,VWS V14.01,2013-05-19 00:40:00,
2013-05-18 20:45:00,61.5,55.6,30.30,SE,124,5.8,7.6,81,0.00,,---,0.00,VWS V14.01,2013-05-19 00:45:00,
2013-05-18 20:50:00,61.5,55.6,30.30,ESE,116,6.3,6.3,81,0.00,,---,0.00,VWS V14.01,2013-05-19 00:50:00,
2013-05-18 20:55:00,61.3,55.8,30.30,SE,131,5.4,8.7,82,0.00,,---,0.00,VWS V14.01,2013-05-19 00:55:00,
2013-05-18 21:00:00,61.3,55.8,30.30,SE,125,8.3,10.1,82,0.00,,---,0.00,VWS V14.01,2013-05-19 01:00:00,
2013-05-18 21:05:00,61.3,55.8,30.30,ESE,106,8.1,8.1,82,0.00,,---,0.00,VWS V14.01,2013-05-19 01:05:00,
2013-05-18 21:10:00,61.3,55.8,30.30,SE,126,8.3,8.3,82,0.00,,---,0.00,VWS V14.01,2013-05-19 01:10:00,
2013-05-18 21:15:00,61.3,55.8,30.30,SSE,154,10.1,11.0,82,0.00,,---,0.00,VWS V14.01,2013-05-19 01:15:00,
2013-05-18 21:20:00,61.2,55.6,30.30,ESE,117,10.5,10.5,82,0.00,,---,0.00,VWS V14.01,2013-05-19 01:20:00,
2013-05-18 21:25:00,61.2,55.6,30.30,SSE,158,3.6,8.1,82,0.00,,---,0.00,VWS V14.01,2013-05-19 01:25:00,
2013-05-18 21:30:00,61.2,55.6,30.30,SE,143,8.3,10.5,82,0.00,,---,0.00,VWS V14.01,2013-05-19 01:30:00,
2013-05-18 21:35:00,61.0,55.8,30.30,SSE,149,8.1,10.5,83,0.00,,---,0.00,VWS V14.01,2013-05-19 01:35:00,
2013-05-18 21:40:00,61.0,55.8,30.30,SE,125,6.3,8.3,83,0.00,,---,0.00,VWS V14.01,2013-05-19 01:40:00,
2013-05-18 21:45:00,61.0,55.8,30.27,SE,125,5.4,8.7,83,0.00,,---,0.00,VWS V14.01,2013-05-19 01:45:00,
2013-05-18 21:50:00,61.0,55.8,30.27,SE,126,5.8,9.2,83,0.00,,---,0.00,VWS V14.01,2013-05-19 01:50:00,
2013-05-18 21:55:00,60.8,55.6,30.27,SE,141,6.3,10.1,83,0.00,,---,0.00,VWS V14.01,2013-05-19 01:55:00,
2013-05-18 22:00:00,60.8,55.9,30.30,ESE,117,7.6,7.6,84,0.00,,---,0.00,VWS V14.01,2013-05-19 02:00:00,
2013-05-18 22:05:00,60.8,56.3,30.30,SE,135,7.6,8.7,85,0.00,,---,0.00,VWS V14.01,2013-05-19 02:05:00,
2013-05-18 22:10:00,60.6,56.1,30.30,SE,139,8.1,8.3,85,0.00,,---,0.00,VWS V14.01,2013-05-19 02:10:00,
2013-05-18 22:15:00,60.8,56.3,30.30,SE,139,8.1,8.1,85,0.00,,---,0.00,VWS V14.01,2013-05-19 02:15:00,
2013-05-18 22:20:00,60.8,56.3,30.30,ESE,104,8.7,8.7,85,0.00,,---,0.00,VWS V14.01,2013-05-19 02:20:00,
2013-05-18 22:25:00,60.8,56.3,30.30,SE,141,6.3,8.3,85,0.00,,---,0.00,VWS V14.01,2013-05-19 02:25:00,
2013-05-18 22:30:00,60.8,56.3,30.30,SE,131,8.7,8.7,85,0.00,,---,0.00,VWS V14.01,2013-05-19 02:30:00,
2013-05-18 22:35:00,60.6,56.4,30.30,ESE,114,8.7,8.7,86,0.00,,---,0.00,VWS V14.01,2013-05-19 02:35:00,
2013-05-18 22:40:00,60.6,56.4,30.30,East,94,5.4,6.3,86,0.00,,---,0.00,VWS V14.01,2013-05-19 02:40:00,
2013-05-18 22:45:00,60.6,56.4,30.30,SE,130,5.8,7.6,86,0.00,,---,0.00,VWS V14.01,2013-05-19 02:45:00,
2013-05-18 22:50:00,60.6,56.7,30.30,ESE,108,5.8,9.6,87,0.00,,---,0.00,VWS V14.01,2013-05-19 02:50:00,
2013-05-18 22:55:00,60.4,56.6,30.30,ESE,120,8.1,8.1,87,0.00,,---,0.00,VWS V14.01,2013-05-19 02:55:00,
2013-05-18 23:00:00,60.4,56.6,30.30,SE,130,5.8,8.3,87,0.00,,---,0.00,VWS V14.01,2013-05-19 03:00:00,
2013-05-18 23:05:00,60.4,56.6,30.30,ESE,103,8.1,8.1,87,0.00,,---,0.00,VWS V14.01,2013-05-19 03:05:00,
2013-05-18 23:10:00,60.4,56.9,30.30,SSE,149,8.3,9.6,88,0.00,,---,0.00,VWS V14.01,2013-05-19 03:10:00,
2013-05-18 23:15:00,60.4,56.9,30.30,ESE,105,8.3,8.3,88,0.00,,---,0.00,VWS V14.01,2013-05-19 03:15:00,
2013-05-18 23:20:00,60.4,56.9,30.30,ESE,113,8.3,8.3,88,0.00,,---,0.00,VWS V14.01,2013-05-19 03:20:00,
2013-05-18 23:25:00,60.3,56.7,30.30,East,95,8.7,10.5,88,0.00,,---,0.00,VWS V14.01,2013-05-19 03:25:00,
2013-05-18 23:30:00,60.3,56.7,30.30,SE,146,7.6,10.1,88,0.00,,---,0.00,VWS V14.01,2013-05-19 03:30:00,
2013-05-18 23:35:00,60.3,56.7,30.30,ESE,121,10.1,10.1,88,0.00,,---,0.00,VWS V14.01,2013-05-19 03:35:00,
2013-05-18 23:40:00,60.3,57.0,30.30,SSE,149,6.7,8.1,89,0.00,,---,0.00,VWS V14.01,2013-05-19 03:40:00,
2013-05-18 23:45:00,60.3,57.0,30.30,SE,137,6.7,8.7,89,0.00,,---,0.00,VWS V14.01,2013-05-19 03:45:00,
2013-05-18 23:50:00,60.1,56.8,30.30,ESE,120,10.1,10.1,89,0.00,,---,0.00,VWS V14.01,2013-05-19 03:50:00,
2013-05-18 23:56:00,60.1,57.1,30.30,ESE,121,8.7,8.7,90,0.00,,---,0.00,VWS V14.01,2013-05-19 03:56:00,